STARLINK-31976, 59887

Orbit data source: Space-Track

STARLINK-31976, 59887 is a payload satellite owned by SpaceX/Seattle (US) in LEO that was launched on Tue, 28 May 2024 UTC via an FALCON 9 launch vehicle from the Air Force Eastern Test Range (AFETR). Payload-class satellites include a variety of spacecraft equipped with specific instruments for various scientific and technological missions. These include communications satellites like Starlink; space stations such as the ISS; scientific satellites like the Hubble; Earth observation satellites from companies like Planet Labs, Umbra, and HawkEye 360; GPS; miniature CubeSats for education and research; and military/defense satellites.

Loading next visibility...
Identifier
59887, 2024-100C
Orbit
LEO
Country
Flag of USUS
Related business
Manufacturer
SpaceX/Seattle
Mission
Operational Commercial Communications
Bus & Motor
STARLINK V2M, Unknown motor
Mass
730 kg wet, ~700 kg dry
Launch date (UTC)
2024-05-28 (2 years ago)
Launch vehicle
FALCON 9
Launch site
Air Force Eastern Test Range (AFETR)
Object type
Payload
Rocket body
Debris
Shape & HBR
Box + 2 Pan, 17.7 m
Radar Cross Section
33.884 m², Large (>1 m²)

Expand to show TLE details & history
Last TLE update: 12 hours ago

TLE from 12 hours ago
0 STARLINK-31976
1 59887U 24100C   26036.14396379 -.00010668  00000-0 -37824-3 0  9993
2 59887  42.9992 313.1360 0000730 255.5087 104.5684 15.27619921 96133
Epoch: 2026-02-05T03:27Z
TLE epoch observation values (Epoch: 2026-02-05T03:27:18.471Z)
Latitude
0.00001°
Longitude
126.00863°
Altitude
482.831 km
Speed
7.626 km/s
True Right ascension
20h 52m 32s
True Declination
0° 00' 00"
Sunlit
Object was in daylight at epoch
Visualization orbit readout
Latitude
Unknown
Longitude
Unknown
Altitude
Unknown
Speed
Unknown
Apparent Right ascension
Unknown
Apparent Declination
Unknown
Sunlit
N/A
Visualization observer readout
Local Sidereal Time
17:14:57
Azimuth
Unknown
Elevation
Unknown
Doppler factor
Unknown
Orbital elements
Apogee altitude
485.376 km
Perigee altitude
484.374 km
Semi-major axis
6,863.012 km
Eccentricity
0.00007
Inclination
42.9992°
RAAN
313.136°
Arg. of periapsis
255.5087°
True anomaly
104.5765°
Mean anomaly
104.5684°
Eccentric anomaly
104.57245°
Mean motion
3.81743 °/min
Orbital period
94.3 mins
BSTAR
-0.00037824
Loading maneuver chart data...
Computing Atmospheric mass density...
Loading historical data...
Loading historical data...
Loading historical data...
Loading historical data...
Loading historical data...
Loading historical data...
Loading historical data...

Documentation

Showing up to 5 results
|